Regional Weather Roundup
Issued by NWS Upton, NY

Current Version | Previous Version | Text Only | Print | Product List | Glossary On
Versions: 1 2 3 4 5 6 7 8 9 10 11 12 13 14 15 16 17 18 19 20 21 22 23 24 25 26 27 28 29 30 31 32 33 34 35 36 37 38 39 40 41 42 43 44 45 46 47 48 49 50
000
ASUS41 KOKX 211507
RWROKX

REGIONAL WEATHER ROUNDUP
NATIONAL WEATHER SERVICE NEW YORK NY
1100 AM EDT TUE APR 21 2015

NOTE: "FAIR" INDICATES FEW OR NO CLOUDS BELOW 12,000 FEET WITH NO
SIGNIFICANT WEATHER AND/OR OBSTRUCTIONS TO VISIBILITY.

NYZ071-072-176-178-NJZ106-104-211600-
NEW YORK CITY METRO AREA


CITY           SKY/WX    TMP DP  RH WIND       PRES   REMARKS
CENTRAL PARK   MOSUNNY   57  47  69 W8        29.69R
LAGUARDIA APRT MOSUNNY   58  47  66 NW8       29.66R
KENNEDY INTL   MOSUNNY   62  49  62 W15G24    29.67R
NEWARK/LIBERTY MOSUNNY   63  42  46 NW15      29.67R
BRNX BOT. GARD   N/A     59  46  63 NW10      29.66F
TETERBORO      MOSUNNY   60  45  57 W12       29.66R
$$

NYZ177-179-078>081-211600-
LONG ISLAND NEW YORK

CITY           SKY/WX    TMP DP  RH WIND       PRES   REMARKS
FARMINGDALE    PTSUNNY   60  50  69 NW14G23   29.66R
ISLIP          CLOUDY    62  51  67 W15       29.63R
SHIRLEY        CLOUDY    60  51  72 W12G17    29.65R
WESTHAMPTON    CLOUDY    61  53  75 W15       29.64R
MONTAUK POINT    N/A     58  53  84 W8        29.63R
$$

NYZ052-065-067-211600-
HUDSON VALLEY

CITY           SKY/WX    TMP DP  RH WIND       PRES   REMARKS
WHITE PLAINS   PTSUNNY   56  46  69 NW18G28   29.66R
NEWBURGH       PTSUNNY   55  46  71 NW17G23   29.66R
MONTGOMERY     CLOUDY    56  41  57 NW9       29.64S
POUGHKEEPSIE   CLOUDY    58  45  62 NW6       29.64R
ALBANY         LGT RAIN  51  43  74 SW5       29.65S
$$

NJZ001-105-106-008-010-013-015-019>022-104-211600-
NEW JERSEY

CITY           SKY/WX    TMP DP  RH WIND       PRES   REMARKS
NEWARK/LIBERTY MOSUNNY   63  42  46 NW15      29.67R
TETERBORO      MOSUNNY   60  45  57 W12       29.66R
CALDWELL       MOSUNNY   60  39  45 W14G20    29.68R
MORRISTOWN     MOSUNNY   63  43  48 W8G25     29.67S
SOMERVILLE     MOSUNNY   62  40  44 W9G21     29.67R
SUSSEX         MOSUNNY   57  41  55 VRB5      29.67R
ANDOVER          N/A     59  38  45 VRB7G25   29.67R
TRENTON        MOSUNNY   61  38  42 W14G22    29.69S
MILLVILLE      MOSUNNY   62  43  49 W15G26    29.73R
ATLANTIC CITY  MOSUNNY   64  40  41 W16       29.72R
WRIGHTSTOWN    SUNNY     61  41  47 W13G23    29.67S
TOMS RIVER     SUNNY     61  41  48 NW15G26   29.70R
BELMAR         SUNNY     61  41  48 W17G23    29.69R
$$

PAZ047>061-062-071-211600-
EASTERN PENNSYLVANIA

CITY           SKY/WX    TMP DP  RH WIND       PRES   REMARKS
PHILADELPHIA   MOSUNNY   62  36  37 W20G32    29.73R
ALLENTOWN      MOSUNNY   59  35  40 W16G26    29.70R
SCRANTON       MOSUNNY   54  32  43 SW20G32   29.68R
$$

CTZ002-004>006-009-010-012-RIZ004-006-007-MAZ004-011-015-211600-
SOUTHERN NEW ENGLAND
 IN CT

CITY           SKY/WX    TMP DP  RH WIND       PRES   REMARKS
BRADLEY INTL   LGT RAIN  54  50  86 NW8       29.62R FOG
HARTFORD       CLOUDY    55  52  89 S6        29.62R
DANBURY        PTSUNNY   56  46  69 NW10G21   29.65R
WTRBRY/OXFORD  PTSUNNY   55  48  76 W9G21     29.64R
BRIDGEPORT     PTSUNNY   61  52  72 SW8       29.62S
MERIDEN        CLOUDY    59  54  83 CALM      29.61F
NEW HAVEN      PTSUNNY   56  51  84 SW7       29.61F
CHESTER        CLOUDY    55  55 100 W6        29.62R
GROTON         CLOUDY    58  56  93 SW10      29.60R
WILLIMANTIC    CLOUDY    59  54  83 W8        29.60R

 IN RI

CITY           SKY/WX    TMP DP  RH WIND       PRES   REMARKS
PROVIDENCE     MOSUNNY   67  57  70 SW9       29.57R
BLOCK ISLAND   CLOUDY    50  46  87 W9        29.62R VSB 1
WESTERLY       CLOUDY    55  53  93 SW10      29.61R

 IN MA

CITY           SKY/WX    TMP DP  RH WIND       PRES   REMARKS
BOSTON         MOSUNNY   65  57  75 SW12      29.55R
WORCESTER      CLOUDY    54  50  86 W12       29.59R
WESTFIELD      CLOUDY    55  45  68 NW12G17   29.62R
PROVINCETOWN   CLOUDY   N/A N/A N/A S13G18    29.55R VSB 3/4
NANTUCKET      CLOUDY    53  50  89 S17       29.59S FOG
$$

ANZ330-335-338-340-345-350-353-355-211600-
COASTAL MARINE OBSERVATIONS


STATION/POSITION TIME  SKY/WX   TEMP    WIND        PRES    VSBY  WAVE
                                AIR SEA DIR/SP/G                  HT/PER
                 (UTC)          (F)     (DEG/KT/KT) (MB)    (MI)  (FT/S)
NY HARB ENTRANCE 1450            50 44  280/ 10/ 14 1004.6          7/11
4S FIRE IS       1403               43                N/A           8/11
20S FIRE ISLAND  1350               43              1004.3          8/10
23SW MTP         NOT AVBL
HUDSON CANYON    NOT AVBL
EXECUTION ROCKS  NOT AVBL
WESTERN LI SOUND NOT AVBL
CENTRAL LI SOUND NOT AVBL
EASTERN LI SOUND 1400            47     260/  8/ 10   N/A
ROBBINS REEF     1400            56     310/ 19/ 24 1002.8
$$


>>>>>>>>>>>>>>>>>>>>>>>>>>>> KEY <<<<<<<<<<<<<<<<<<<<<<<<<<<
>                                                          <
>     SKY/WX - SKY CONDITION/PRESENT WEATHER               <
>     TMP    - TEMPERATURE IN FAHRENHEIT                   <
>     DP     - DEWPOINT IN FAHRENHEIT                      <
>     RH     - RELATIVE HUMIDITY IN PERCENT                <
>     WIND   - DIRECTION AND SPEED IN MPH                  <
>     PRES   - MEAN SEA LEVEL PRESSURE IN INCHES OF HG     <
>     WCI    - WIND CHILL INDEX                            <
>     VSB    - VISIBILITY IN MILES                         <
>     HX     - HEAT INDEX                                  <
>     TC     - TEMPERATURE IN CELSIUS                      <
>     VRB    - VARIABLE WIND DIRECTION                     <
>                                                          <
>>>>>>>>>>>>>>>>>>>>>>>>>>>> KEY <<<<<<<<<<<<<<<<<<<<<<<<<<<





USA.gov is the U.S. government's official web portal to all federal, state and local government web resources and services.